• en France
  • Liste des pays
  • À 7 jours
  • Température de l'eau
  • Carte satellitaire
  • Carte météo
  • Widgets météo
  • user-avatar
    Se connecter

    Météo par heure à Olimpia

    Ce jour, 20 Octobre, Samedi

    Heure Température Précipitation Vent Pression Humidité
    00:00 +10°C° 0 mm 0 m/s 757 mmHg 74%
    01:00 +10°C° 0 mm 0 m/s 757 mmHg 74%
    02:00 +10°C° 0 mm 0 m/s 756 mmHg 75%
    03:00 +11°C° 0 mm 1 m/s 756 mmHg 76%
    04:00 +11°C° 0 mm 1 m/s 756 mmHg 77%
    05:00 +11°C° 0 mm 1 m/s 757 mmHg 78%
    06:00 +11°C° 0 mm 1 m/s 757 mmHg 79%
    07:00 +11°C° 0 mm 1 m/s 757 mmHg 80%
    08:00 +12°C° 0 mm 2 m/s 757 mmHg 78%
    09:00 +12°C° 0 mm 2 m/s 757 mmHg 77%
    10:00 +13°C° 0 mm 2 m/s 757 mmHg 75%
    11:00 +12°C° 0 mm 3 m/s 757 mmHg 72%
    12:00 +12°C° 0 mm 3 m/s 757 mmHg 68%
    13:00 +13°C° 0 mm 3 m/s 757 mmHg 65%
    14:00 +12°C° 0 mm 3 m/s 757 mmHg 64%
    15:00 +12°C° 0 mm 4 m/s 757 mmHg 63%
    16:00 +12°C° 0 mm 4 m/s 757 mmHg 62%
    17:00 +11°C° 0.1 mm 4 m/s 757 mmHg 63%
    18:00 +11°C° 0.1 mm 3 m/s 757 mmHg 64%
    19:00 +10°C° 0.1 mm 3 m/s 757 mmHg 66%
    20:00 +10°C° 0.1 mm 3 m/s 758 mmHg 68%
    21:00 +9°C° 0.1 mm 3 m/s 758 mmHg 71%
    22:00 +9°C° 0.1 mm 3 m/s 758 mmHg 74%
    23:00 +9°C° 0.1 mm 3 m/s 758 mmHg 77%

    Demain, 21 Octobre, Dimanche

    Heure Température Précipitation Vent Pression Humidité
    00:00 +8°C° 0.1 mm 3 m/s 758 mmHg 80%
    01:00 +7°C° 0.1 mm 3 m/s 758 mmHg 83%
    02:00 +7°C° 0 mm 2 m/s 758 mmHg 85%
    03:00 +6°C° 0 mm 2 m/s 758 mmHg 88%
    04:00 +6°C° 0 mm 2 m/s 758 mmHg 90%
    05:00 +6°C° 0 mm 2 m/s 758 mmHg 91%
    06:00 +7°C° 0 mm 1 m/s 758 mmHg 91%
    07:00 +7°C° 0 mm 1 m/s 759 mmHg 92%
    08:00 +8°C° 0 mm 1 m/s 759 mmHg 85%
    09:00 +10°C° 0 mm 1 m/s 759 mmHg 77%
    10:00 +11°C° 0 mm 1 m/s 759 mmHg 70%
    11:00 +12°C° 0 mm 1 m/s 759 mmHg 66%
    12:00 +13°C° 0 mm 1 m/s 759 mmHg 62%
    13:00 +14°C° 0 mm 1 m/s 759 mmHg 58%
    14:00 +13°C° 0 mm 1 m/s 759 mmHg 60%
    15:00 +13°C° 0 mm 1 m/s 759 mmHg 62%
    16:00 +12°C° 0 mm 0 m/s 758 mmHg 64%
    17:00 +11°C° 0 mm 0 m/s 759 mmHg 67%
    18:00 +10°C° 0 mm 0 m/s 759 mmHg 71%
    19:00 +9°C° 0 mm 0 m/s 759 mmHg 75%
    20:00 +8°C° 0 mm 0 m/s 759 mmHg 76%
    21:00 +9°C° 0 mm 1 m/s 759 mmHg 78%
    22:00 +9°C° 0 mm 1 m/s 759 mmHg 80%
    23:00 +8°C° 0 mm 1 m/s 759 mmHg 81%

    Après-demain, 22 Octobre, Lundi

    Heure Température Précipitation Vent Pression Humidité
    00:00 +8°C° 0 mm 1 m/s 759 mmHg 83%
    01:00 +8°C° 0 mm 1 m/s 759 mmHg 85%
    02:00 +7°C° 0 mm 1 m/s 758 mmHg 86%
    03:00 +7°C° 0 mm 1 m/s 758 mmHg 87%
    04:00 +7°C° 0 mm 1 m/s 758 mmHg 88%
    05:00 +7°C° 0 mm 1 m/s 758 mmHg 89%
    06:00 +7°C° 0 mm 1 m/s 758 mmHg 89%
    07:00 +6°C° 0 mm 1 m/s 758 mmHg 90%
    08:00 +7°C° 0 mm 2 m/s 758 mmHg 83%
    09:00 +9°C° 0 mm 2 m/s 758 mmHg 75%
    10:00 +12°C° 0 mm 2 m/s 758 mmHg 68%
    11:00 +12°C° 0 mm 2 m/s 757 mmHg 64%
    12:00 +12°C° 0 mm 3 m/s 757 mmHg 59%
    13:00 +13°C° 0 mm 3 m/s 756 mmHg 55%
    14:00 +13°C° 0 mm 3 m/s 756 mmHg 57%
    15:00 +13°C° 0 mm 2 m/s 755 mmHg 59%
    16:00 +13°C° 0 mm 2 m/s 755 mmHg 62%
    17:00 +12°C° 0 mm 2 m/s 755 mmHg 66%
    18:00 +10°C° 0 mm 2 m/s 755 mmHg 70%
    19:00 +9°C° 0 mm 3 m/s 755 mmHg 74%
    20:00 +9°C° 0.5 mm 3 m/s 755 mmHg 77%
    21:00 +8°C° 0.5 mm 4 m/s 756 mmHg 80%
    22:00 +7°C° 0.5 mm 4 m/s 756 mmHg 83%
    23:00 +7°C° 0.6 mm 4 m/s 756 mmHg 81%

    23 Octobre, Mardi

    Heure Température Précipitation Vent Pression Humidité
    00:00 +7°C° 0.6 mm 4 m/s 756 mmHg 79%
    01:00 +7°C° 0.6 mm 4 m/s 756 mmHg 77%
    02:00 +6°C° 0 mm 4 m/s 756 mmHg 77%
    03:00 +6°C° 0 mm 4 m/s 756 mmHg 76%
    04:00 +6°C° 0 mm 4 m/s 756 mmHg 76%
    05:00 +5°C° 0 mm 4 m/s 756 mmHg 79%
    06:00 +5°C° 0 mm 4 m/s 756 mmHg 82%
    07:00 +4°C° 0 mm 4 m/s 756 mmHg 85%
    08:00 +5°C° 0 mm 4 m/s 756 mmHg 79%
    09:00 +6°C° 0 mm 5 m/s 756 mmHg 72%
    10:00 +8°C° 0 mm 5 m/s 756 mmHg 66%
    11:00 +8°C° 0 mm 6 m/s 755 mmHg 63%
    12:00 +9°C° 0 mm 6 m/s 754 mmHg 60%
    13:00 +9°C° 0 mm 7 m/s 753 mmHg 58%
    14:00 +9°C° 0.2 mm 8 m/s 752 mmHg 61%
    15:00 +7°C° 0.2 mm 8 m/s 751 mmHg 65%
    16:00 +7°C° 0.2 mm 9 m/s 750 mmHg 69%
    17:00 +7°C° 0.8 mm 10 m/s 749 mmHg 72%
    18:00 +6°C° 0.8 mm 10 m/s 747 mmHg 76%
    19:00 +6°C° 0.8 mm 11 m/s 746 mmHg 79%
    20:00 +6°C° 1.4 mm 11 m/s 745 mmHg 80%
    21:00 +7°C° 1.4 mm 12 m/s 743 mmHg 81%
    22:00 +7°C° 1.4 mm 12 m/s 742 mmHg 82%
    23:00 +8°C° 1.1 mm 12 m/s 741 mmHg 82%

    24 Octobre, Mercredi

    Heure Température Précipitation Vent Pression Humidité
    00:00 +9°C° 1.1 mm 12 m/s 740 mmHg 82%
    01:00 +10°C° 1.1 mm 12 m/s 739 mmHg 82%
    02:00 +9°C° 0.6 mm 12 m/s 739 mmHg 80%
    03:00 +9°C° 0.6 mm 11 m/s 739 mmHg 77%
    04:00 +9°C° 0.6 mm 10 m/s 739 mmHg 74%
    05:00 +8°C° 0.1 mm 10 m/s 740 mmHg 75%
    06:00 +7°C° 0.1 mm 9 m/s 740 mmHg 76%
    07:00 +7°C° 0.1 mm 8 m/s 741 mmHg 77%
    08:00 +7°C° 0 mm 9 m/s 741 mmHg 71%
    09:00 +8°C° 0 mm 9 m/s 742 mmHg 65%
    10:00 +8°C° 0 mm 10 m/s 743 mmHg 58%
    11:00 +8°C° 0 mm 10 m/s 743 mmHg 53%
    12:00 +8°C° 0 mm 10 m/s 743 mmHg 48%
    13:00 +9°C° 0 mm 10 m/s 744 mmHg 43%
    14:00 +9°C° 0 mm 8 m/s 744 mmHg 44%
    15:00 +8°C° 0 mm 7 m/s 745 mmHg 45%
    16:00 +8°C° 0 mm 6 m/s 745 mmHg 46%
    17:00 +7°C° 0 mm 5 m/s 745 mmHg 48%
    18:00 +6°C° 0 mm 5 m/s 746 mmHg 49%
    19:00 +5°C° 0 mm 5 m/s 746 mmHg 50%
    20:00 +5°C° 0 mm 5 m/s 747 mmHg 52%
    21:00 +5°C° 0 mm 5 m/s 747 mmHg 54%
    22:00 +5°C° 0 mm 5 m/s 747 mmHg 56%
    23:00 +5°C° 0 mm 5 m/s 747 mmHg 62%

    25 Octobre, Jeudi

    Heure Température Précipitation Vent Pression Humidité
    00:00 +5°C° 0 mm 5 m/s 747 mmHg 69%
    01:00 +5°C° 0 mm 5 m/s 747 mmHg 75%
    02:00 +5°C° 0 mm 5 m/s 747 mmHg 79%
    03:00 +4°C° 0 mm 4 m/s 747 mmHg 83%
    04:00 +4°C° 0 mm 4 m/s 747 mmHg 87%
    05:00 +5°C° 0 mm 5 m/s 747 mmHg 87%
    06:00 +4°C° 0 mm 6 m/s 746 mmHg 87%
    07:00 +5°C° 0 mm 6 m/s 746 mmHg 87%
    08:00 +8°C° 0.2 mm 7 m/s 745 mmHg 85%
    09:00 +9°C° 0.2 mm 8 m/s 745 mmHg 83%
    10:00 +10°C° 0.2 mm 9 m/s 744 mmHg 81%
    11:00 +9°C° 0.1 mm 10 m/s 744 mmHg 78%
    12:00 +8°C° 0.1 mm 10 m/s 743 mmHg 76%
    13:00 +8°C° 0.1 mm 10 m/s 743 mmHg 73%
    14:00 +8°C° 0.1 mm 10 m/s 743 mmHg 73%
    15:00 +8°C° 0.1 mm 9 m/s 743 mmHg 73%
    16:00 +8°C° 0.1 mm 9 m/s 743 mmHg 74%
    17:00 +8°C° 0.1 mm 9 m/s 743 mmHg 74%
    18:00 +8°C° 0.1 mm 9 m/s 743 mmHg 73%
    19:00 +8°C° 0.1 mm 9 m/s 743 mmHg 73%
    20:00 +8°C° 0.2 mm 9 m/s 742 mmHg 75%
    21:00 +8°C° 0.2 mm 10 m/s 742 mmHg 77%
    22:00 +8°C° 0.2 mm 11 m/s 741 mmHg 78%
    23:00 +8°C° 0.5 mm 11 m/s 741 mmHg 76%
    Voir plus